Location: Accelerated Learning Center
(32.4504°N, 97.3853°W)
Time: 00:58:02
(UTC+00:00)

Daily predictions for brighter satellites

Satellite Brightness Start Highest point End
(mag) Time Altitude Azimuth Time Altitude Azimuth Time Altitude Azimuth
MOS 1 Rocket 3.9 00:01:48 10° SE 00:05:24 27° ENE 00:09:00 10° NNE
Cosmos 1025 Rocket 3.4 00:01:40 10° N 00:05:45 41° E 00:09:48 10° SSE
Cosmos 1606 2.5 00:03:31 10° SSW 00:06:10 57° W 00:08:51 10° N
IRS-P3 4.4 00:01:29 10° SE 00:06:34 47° ENE 00:11:38 10° N
SJ-12 3.7 00:04:40 10° SSE 00:08:26 63° ENE 00:12:13 10° N
Cosmos 2016 Rocket 4.0 00:04:56 10° S 00:11:03 67° E 00:17:17 10° NNE
CORIOLIS 4.3 00:05:53 10° S 00:11:17 82° WSW 00:16:40 10° NNW
SAR-Lupe-4 3.7 00:08:10 10° S 00:11:44 78° WSW 00:15:19 10° NNW
USA 215 4.0 00:08:56 10° SSE 00:15:19 57° SW 00:21:46 10° NW
Cosmos 909 Rocket 4.3 00:09:27 10° NNW 00:15:30 48° ENE 00:21:59 10° SE
CZ-2D R/B 4.3 00:13:45 10° SE 00:17:04 26° ENE 00:20:28 10° NNE
Cosmos 1378 Rocket 4.2 00:14:14 10° NNW 00:18:28 59° W 00:22:43 10° S
SPOT 1/Viking Rocket 4.1 00:15:39 10° SE 00:20:13 34° ENE 00:24:48 10° N
Cosmos 1782 Rocket 3.9 00:16:09 10° SSE 00:20:18 42° E 00:24:30 10° NNE
Cosmos 1943 Rocket 3.9 00:18:46 10° ESE 00:20:19 11° E 00:20:25 11° E
Cosmos 1818 4.3 00:15:31 10° NW 00:20:50 58° WSW 00:26:07 10° SSE
ARIANE 5 R/B 2.6 00:17:16 10° S 00:22:16 80° WSW 00:27:15 10° NNW
Tiangong 0.1 00:20:38 10° NW 00:22:41 16° N 00:24:28 11° NE
SWARM A 4.4 00:26:21 10° N 00:29:40 75° W 00:32:57 10° S
Cosmos 2061 Rocket 4.0 00:24:19 10° S 00:30:35 62° E 00:36:48 10° NNE
Cosmos 1140 Rocket 3.9 00:26:52 10° S 00:31:40 39° E 00:36:28 10° NNE
SKYMED 2 3.5 00:30:34 10° NNE 00:34:55 89° ENE 00:39:15 10° SSW
COSMO-SKYMED 1 2.4 00:31:51 10° NNE 00:35:56 61° E 00:39:59 10° S
Cosmos 1908 Rocket 4.4 00:31:49 10° SSW 00:36:05 53° W 00:40:23 10° N
Cosmos 1300 Rocket 3.5 00:36:45 10° S 00:41:08 89° E 00:45:33 10° N
Cosmos 1833 Rocket 4.0 00:40:45 10° NNE 00:44:22 19° NE 00:44:22 19° NE
Delta 2 Rocket 3.4 00:43:03 10° W 00:47:00 57° N 00:48:35 32° ENE
Cosmos 1975 Rocket 3.7 00:45:27 10° NNE 00:49:17 31° E 00:53:09 10° SE
Cosmos 1441 Rocket 2.7 00:47:16 10° N 00:50:34 60° E 00:53:51 10° SSE
Cosmos 2221 Rocket 4.2 00:46:20 10° NNW 00:50:45 58° W 00:55:07 10° S
VEP-3 3.8 00:42:58 10° W 00:51:21 40° SSW 00:55:45 14° SE
Cosmos 1603 4.3 00:49:37 10° NNW 00:55:10 58° WSW 01:00:40 10° S
Spot 4 Rocket 3.9 00:57:07 10° SSE 01:02:12 80° ENE 01:07:18 10° N
Cosmos 2084 Rocket 3.2 00:58:36 10° SSW 01:02:45 86° ESE 01:04:22 37° NNE
TIMED 4.5 00:59:29 10° S 01:03:36 53° ESE 01:04:17 47° ENE
SJ-7 4.1 01:05:03 10° S 01:08:44 83° WSW 01:12:27 10° NNW
PSLV R/B 3.3 01:08:25 10° SSE 01:12:31 88° WSW 01:16:36 10° NNW
Cosmos 407 Rocket 3.6 01:08:08 10° S 01:13:10 49° ESE 01:13:35 47° E
Cosmos 1869 3.6 01:10:37 10° S 01:13:10 43° S 01:13:10 43° S
Cosmos 1464 Rocket 4.2 01:13:06 10° SSE 01:19:07 46° E 01:20:09 43° ENE
NOSS 3-4 (A) 3.9 01:13:10 10° NNW 01:20:27 75° ENE 01:28:23 12° SE
NOSS 3-4 (C) 3.9 01:13:15 10° NNW 01:20:32 74° ENE 01:28:08 13° SE
NOAA 6 3.9 01:16:39 10° SSE 01:21:47 76° ENE 01:26:56 10° N
Resurs 1-3 3.7 01:19:06 10° S 01:23:22 71° W 01:27:40 10° NNW
ATLAS CENTAUR R/B 3.9 01:24:30 10° WNW 01:25:36 11° NW 01:26:44 10° NNW
Cosmos 2278 Rocket 2.5 01:20:41 10° S 01:25:11 44° SE 01:25:11 44° SE
YAOGAN 1 3.6 01:31:40 10° S 01:35:43 44° W 01:39:48 10° NNW
USA 281 3.4 01:39:32 49° NE 01:39:32 49° NE 01:45:01 10° N
SL-12 R/B(2) 4.1 01:31:18 10° SSW 01:38:49 82° WNW 01:44:53 23° NNE
OAO 2 Rocket 3.8 01:36:20 10° SW 01:40:43 53° S 01:40:43 53° S
OAO 3 Copernicus 4.5 01:39:05 10° WSW 01:43:34 70° W 01:43:34 70° W
Cosmos 1072 Rocket 4.3 01:41:10 10° S 01:47:25 89° ESE 01:49:40 43° N
Cosmos 1943 Rocket 2.7 01:57:40 10° SSW 02:02:00 53° SW 02:02:00 53° SW
Timation 2 Rocket 4.5 02:01:41 10° SSW 02:08:23 62° WNW 02:09:56 50° NNW
Cosmos 1833 Rocket 4.4 02:23:28 10° NNW 02:26:07 27° NW 02:26:07 27° NW
Cosmos 2237 Rocket 4.5 10:18:13 10° SSE 10:22:27 22° E 10:26:41 10° NE
NOSS 3-1 (A) 3.8 10:29:29 40° ESE 10:29:29 40° ESE 10:34:03 10° NE
DELTA 2 R/B (1) 3.9 10:45:20 53° S 10:45:20 53° S 10:50:07 10° SE
Cosmos 1153 Rocket 4.4 10:43:28 10° N 10:49:41 90° WSW 10:55:57 10° S
Cosmos 1340 Rocket 3.2 11:00:18 52° SE 11:00:18 52° SE 11:03:14 10° SSE
Cosmos 1943 Rocket 4.3 10:55:45 10° N 11:00:00 22° ENE 11:04:14 10° ESE
PAYLOAD A 4.0 10:55:26 10° N 11:00:41 61° WNW 11:00:41 61° WNW
CZ-2C R/B 4.2 10:56:57 10° N 10:58:22 19° N 10:58:22 19° N
Meteor 2-14 Rocket 4.4 10:57:18 10° SSW 11:03:18 59° W 11:09:19 10° N
USA 234 3.9 10:57:09 10° ESE 11:03:27 52° NE 11:08:18 18° NNW
Cosmos 1066 4.5 11:06:45 10° S 11:12:11 80° W 11:17:42 10° N
SL-16 R/B 3.7 11:07:18 10° SSW 11:10:12 23° SW 11:10:12 23° SW
IRS-1D 3.4 11:21:29 10° NNE 11:26:27 89° E 11:31:21 10° SSW
UNK 4.1 11:23:16 10° SSW 11:27:26 37° W 11:27:44 37° W
Cosmos 1328 4.5 11:29:36 31° NNW 11:29:36 31° NNW 11:31:49 10° N
COSMOS 2428 3.4 11:29:57 30° W 11:30:52 32° WNW 11:35:54 10° N
NOSS 0 Rocket 4.0 11:29:32 10° SW 11:35:27 50° WNW 11:41:25 10° N
Cosmos 2100 Rocket 3.9 11:29:34 10° NNW 11:35:36 60° W 11:41:39 10° S
Cosmos 1703 Rocket 3.7 11:36:59 10° SSW 11:41:07 45° W 11:45:18 10° N
Helios 1A Rocket 3.2 11:40:56 10° SSE 11:44:15 54° ENE 11:47:33 10° N
Cosmos 407 Rocket 4.4 11:39:46 10° N 11:44:42 48° ENE 11:49:36 10° SE
Cosmos 1023 Rocket 4.3 11:39:49 10° NNW 11:44:51 70° WSW 11:49:52 10° S
Cosmos 921 Rocket 3.8 11:43:43 23° WNW 11:45:30 31° W 11:49:24 10° SSW
BlueWalker 3 3.6 11:42:58 11° NNW 11:45:57 26° NE 11:49:01 10° E
Cosmos 1980 3.8 11:44:23 10° SW 11:49:50 51° WNW 11:55:21 10° N
